Regional Weather Roundup
Issued by NWS

Home | Current Version | Previous Version | Text Only | Print | Product List | Glossary Off
Versions: 1 2 3 4 5 6 7 8 9 10 11 12 13 14 15 16 17 18 19 20 21 22 23 24 25 26 27 28 29 30 31 32 33 34 35 36 37 38 39 40 41 42 43 44 45 46 47 48 49 50

000
ASUS43 KDMX 190106
RWRIA

WEATHER ROUNDUP FOR IOWA
NATIONAL WEATHER SERVICE DES MOINES IA
800 PM CDT WED OCT 18 2017

NOTE: "FAIR" INDICATES FEW OR NO CLOUDS BELOW 12,000 FEET WITH NO
SIGNIFICANT WEATHER AND/OR OBSTRUCTIONS TO VISIBILITY.

* - THESE STATIONS ARE NOT NWS STATIONS...THUS NOT UNDER NWS
QUALITY CONTROL.  THEY ALSO DO NOT REPORT WEATHER SUCH
AS PRECIPITATION OR FOG.

IAZ001>003-012>014-020>022-031>034-043>046-190200-
   NORTHWEST IOWA

CITY           SKY/WX    TMP DP  RH WIND       PRES   REMARKS
CARROLL *      CLEAR     75  68  78 NW5       30.01R
CHEROKEE *     CLEAR     52  43  69 CALM      30.03R
DENISON *      CLEAR     55  46  71 CALM      30.04R
LE MARS *      CLEAR     61  37  41 NE3       30.03R
ORANGE CITY *  CLEAR     63  37  39 N8        30.04R
SHELDON *      CLEAR     50  39  66 NW6       30.03R
SIOUX CITY     CLEAR     56  43  61 N6        30.02R
SPENCER        CLEAR     50  37  61 N5        30.03R
STORM LAKE *   CLEAR     57  39  51 NE6       30.03R
$$

IAZ055>058-069>071-079>083-090>094-190200-
   SOUTHWEST IOWA

CITY           SKY/WX    TMP DP  RH WIND       PRES   REMARKS
ATLANTIC *     CLEAR     57  50  77 CALM      30.01R
AUDUBON *      CLEAR     54  48  82 CALM      30.03R
CLARINDA *       N/A     54  50  87 CALM      30.04R
COUNCIL BLFS * CLEAR     64  52  63 N7        30.01R
CRESTON *      CLEAR     61  48  63 SW5       30.04R
HARLAN  *      CLEAR     57  48  72 CALM      30.05R
LAMONI         CLEAR     60  48  64 S8        30.02R
RED OAK *      CLEAR     55  48  76 CALM      30.01R
SHENANDOAH *   CLEAR     59  50  72 CALM      30.01R
$$

IAZ047>049-059>061-072>074-084-190200-
   CENTRAL IOWA

CITY           SKY/WX    TMP DP  RH WIND       PRES   REMARKS
AMES           CLEAR     60  51  72 W8        30.00R
ANKENY *       CLEAR     64  50  59 SW5       30.01R
BOONE *        CLOUDY    63  48  59 SW6       30.00R
CHARITON *     CLEAR     61  48  63 SW5       30.02R
DES MOINES     MOCLDY    66  48  52 SW8       30.00R
GRINNELL*      CLEAR     61  48  62 S7        30.02R
KNOXVILLE *    CLEAR     61  48  63 SW7       30.00R
MARSHALLTOWN   CLEAR     64  49  57 S8        29.99R
NEWTON *       CLEAR     61  48  63 SW5       30.01R
PELLA *        CLEAR     63  48  57 SW5       30.02R
PERRY *          N/A     58  46  65 W5        30.01R
$$

IAZ004>006-015-016-023>025-035-036-190200-
   NORTH CENTRAL IOWA

CITY           SKY/WX    TMP DP  RH WIND       PRES   REMARKS
ALGONA *       CLEAR     59  37  44 CALM      30.02R
CLARION *      PTCLDY    59  43  55 N6        30.01R
ESTHERVILLE      N/A     53  34  48 NW8       30.02R
FORT DODGE *   CLEAR     54  45  71 CALM      30.01R
MASON CITY     CLEAR     53  42  66 W5        30.01R
FOREST CITY *    N/A     54  41  62 CALM      30.01R
WEBSTER CITY * CLOUDY    55  45  67 NW5       29.98R
IOWA FALLS *     N/A     59  49  68 W3        30.01R
$$

IAZ007>011-017>019-026>030-037>042-050>054-066-190200-
   NORTHEAST IOWA

CITY           SKY/WX    TMP DP  RH WIND       PRES   REMARKS
CEDAR RAPIDS   CLEAR     60  47  61 S5        30.01R
CHARLES CITY * PTCLDY    54  48  82 W5        29.98R
CLINTON *      CLEAR     58  45  62 SW7       30.02R
DECORAH *      CLEAR     64  48  55 CALM      29.96R
DUBUQUE        CLEAR     58  47  66 SW10      30.01R
MONTICELLO *   CLEAR     59  46  63 S3        30.00R
OELWEIN *      CLEAR     61  48  63 S9        29.99R
WATERLOO       CLEAR     59  48  67 SW6       29.98R
$$

IAZ064-065-067-068-078-190200-
   EAST CENTRAL IOWA

CITY           SKY/WX    TMP DP  RH WIND       PRES   REMARKS
DAVENPORT      CLEAR     63  43  48 S10       30.03R
IOWA CITY      CLEAR     60  47  61 CALM      30.03R
MUSCATINE *    CLEAR     61  45  55 S7        30.02R
QUAD CITIES    CLEAR     62  43  49 S9        30.01R
$$

IAZ062-063-075>077-085>089-095>099-190200-
   SOUTHEAST IOWA

CITY           SKY/WX    TMP DP  RH WIND       PRES   REMARKS
BURLINGTON     CLEAR     62  45  53 S8        30.03R
FAIRFIELD *    CLEAR     61  46  59 S7        30.01R
FORT MADISON * CLEAR     61  46  59 S6        30.04S
KEOKUK *       CLEAR     63  46  55 S6        30.03S
OSKALOOSA *      N/A     57  48  71 SW7       30.02R
OTTUMWA        CLEAR     59  48  67 S7        30.01R
WASHINGTON *   CLEAR     59  48  67 SW8       30.02R
$$

ABBREVIATIONS USED IN REMARKS
   TC - TEMPERATURES IN CELSIUS
  WCI - WIND CHILL INDEX
   HX - HEAT INDEX
  VSB - VISIBILITY
$$




USA.gov is the U.S. government's official web portal to all federal, state and local government web resources and services.